Вернуться в каталог

DELTA 1 DEB

АктивенUNKNOWN
NORAD 10469·DEBRIS·🇺🇸 United States

Запущен Jul 14, 1977 с Cape Canaveral Space Force Station

Loading…

Ближайшие Пролёты (ближайшие 24 часа)

TLE

СвежийSource: Space-Track

Эпоха: Sep 13, 2026, 08:58 UTC

1 10469U 77065EB  26256.37403418  .00000291  00000-0  22055-3 0  9995
2 10469  29.1233 323.0108 0865185 204.2026 151.5414 12.72348383281630

Отслеживайте DELTA 1 DEB в реальном времени с AllMySat

Download on the App Store